Hourly Data Report for June 24, 2019

TORONTO CITY
ONTARIO
Current Station Operator: ECCC - MSC

43°40'00.000" N
79°24'00.000" W
112.50 m
6158355
71508
XTO

Download Data

Hourly Data (June 2019)
Hourly Data Report for June 24, 2019
TIME
LST
Temp Definition
°C
Dew Point Definition
°C
Rel Hum Definition
%
Precip. Amount Definition
mm

Wind Dir Definition
10's deg

Wind Spd Definition
km/h
Visibility Definition
km
Stn Press Definition
kPa
Hmdx Definition


Wind Chill Definition


Weather Definition


00:00 18.2 8.6 53 0.0       99.82     LegendNANA
01:00 17.7 8.8 56 0.0       99.77     LegendNANA
02:00 17.2 10.4 65 0.0       99.76     LegendNANA
03:00 16.8 10.6 67 0.0       99.74     LegendNANA
04:00 16.1 10.7 71 0.0       99.72     LegendNANA
05:00 17.3 11.1 67 0.0       99.73     LegendNANA
06:00 17.7 10.2 62 0.0       99.70     LegendNANA
07:00 18.3 9.6 57 0.0       99.66     LegendNANA
08:00 18.8 9.0 53 0.0       99.63     LegendNANA
09:00 19.6 8.8 49 0.0       99.58     LegendNANA
10:00 20.0 7.6 45 0.0       99.62     LegendNANA
11:00 19.3 10.7 57 0.0       99.52     LegendNANA
12:00 20.3 11.8 58 0.0       99.49     LegendNANA
13:00 21.3 13.0 59 0.0       99.44     LegendNANA
14:00 22.7 13.3 55 0.0       99.43 26   LegendNANA
15:00 23.2 14.5 58 0.0       99.32 27   LegendNANA
16:00 23.1 13.9 56 0.0       99.28 26   LegendNANA
17:00 22.0 13.9 60 0.0       99.21 25   LegendNANA
18:00 21.6 13.5 60 0.0       99.15 25   LegendNANA
19:00 20.9 13.1 61 0.0       99.16     LegendNANA
20:00 20.6 13.4 64 0.0       99.14     LegendNANA
21:00 20.4 14.0 67 0.0       99.12     LegendNANA
22:00 19.6 14.6 73 0.0       99.07     LegendNANA
23:00 18.5 14.6 78 0.0       99.06     LegendNANA

Notes on Data Quality.

Legend

  • E = Estimated
  • M = Missing
  • NA = Not Available*
  • [empty] = Indicates an unobserved value
Date modified: